This demonstration page uses our WeatherBlox Daily Observations layout. Learn more.

Left ArrowRight Arrow

39.01783, -85.05884

Hourly Observations for March 29, 2015

Temp ( °F °C ) Dew Point ( °F °C ) Humidity (%) Winds ( mph kmh ) Pressure ( in mb ) Visibility ( mi km ) Precip ( " mm )
12:52 am 00:52 Clear 27 -2.8 15 -9.4 61 61 Calm 30.37 1028 10 16 0.00 0.00
1:52 am 01:52 Clear 27 -2.8 13 -10.6 55 55 SE 3 6 30.37 1029 10 16 0.00 0.00
2:52 am 02:52 Clear 25 -3.9 15 -9.4 66 66 ESE 3 6 30.37 1028 10 16 0.00 0.00
3:52 am 03:52 Clear 25 -3.9 13 -10.6 60 60 SSE 3 6 30.36 1028 10 16 0.00 0.00
4:52 am 04:52 Clear 23 -5 14 -10 68 68 S 5 7 30.35 1028 10 16 0.00 0.00
5:52 am 05:52 Clear 22 -5.6 13 -10.6 68 68 S 6 9 30.35 1028 10 16 0.00 0.00
6:52 am 06:52 Clear 23 -5 12 -11.1 63 63 S 6 9 30.36 1028 10 16 0.00 0.00
7:52 am 07:52 Partly Cloudy 25 -3.9 14 -10 63 63 SSE 13 20 30.34 1027 10 16 0.00 0.00
8:52 am 08:52 Partly Cloudy 28 -2.2 16 -8.9 60 60 S 14 22 30.36 1028 10 16 0.00 0.00
9:52 am 09:52 Partly Cloudy 32 0 16 -8.9 52 52 S 15 24 30.35 1028 10 16 0.00 0.00
10:52 am 10:52 Partly Cloudy 38 3.3 17 -8.3 43 43 S 13 20 30.32 1027 10 16 0.00 0.00
11:52 am 11:52 Mostly Cloudy 40 4.4 16 -8.9 38 38 SSE 15 24 30.31 1026 10 16 0.00 0.00
12:52 pm 12:52 Mostly Cloudy 44 6.7 17 -8.3 34 34 S 20 31 30.27 1025 10 16 0.00 0.00
1:52 pm 13:52 Mostly Cloudy 47 8.3 14 -10 26 26 S 18 30 30.21 1023 10 16 0.00 0.00
2:52 pm 14:52 Mostly Cloudy 49 9.4 14 -10 25 25 S 17 28 30.17 1022 10 16 0.00 0.00
3:52 pm 15:52 Mostly Cloudy 49 9.4 14 -10 25 25 S 18 30 30.11 1020 10 16 0.00 0.00
4:52 pm 16:52 Mostly Cloudy 49 9.4 15 -9.4 26 26 S 17 28 30.03 1017 10 16 0.00 0.00
5:52 pm 17:52 Cloudy 50 10 17 -8.3 27 27 S 14 22 29.98 1015 10 16 0.00 0.03
6:52 pm 18:52 Cloudy 52 11.1 15 -9.4 23 23 SSW 9 15 29.96 1015 10 16 0.00 0.00
7:52 pm 19:52 Cloudy 52 11.1 15 -9.4 23 23 WSW 6 9 30.01 1016 10 16 0.00 0.00
8:52 pm 20:52 Cloudy with Light Rain 49 9.4 26 -3.3 41 41 S 12 19 29.95 1014 10 16 0.00 0.03
9:52 pm 21:52 Cloudy with Light Rain 46 7.8 35 1.7 66 66 SW 6 9 29.91 1013 6 10 0.05 1.27
10:17 pm 22:17 Cloudy with Light Rain 45 7 37 3 76 76 WNW 15 24 30.00 1016 7 11 0.02 0.51
10:52 pm 22:52 Cloudy with Light Rain 43 6.1 37 2.8 80 80 WNW 10 17 30.00 1016 10 16 0.04 1.02
11:52 pm 23:52 Cloudy 45 7.2 38 3.3 77 77 WSW 7 11 29.99 1016 10 16 0.00 0.03

Powered by AerisWeather